Pittsburg, KS

11:32 AM CDT on May 22, 2017 (GMT -0500)
Atkinson Municipal

Weather History for KPTS - August, 2013

Change the Weather History Date:

Saturday, August 3, 2013

  Actual Average (KJLN) Record (KJLN)
Temperature  
Mean Temperature 78 °F -  
Max Temperature 86 °F 89 °F 105 °F (2011)
Min Temperature 70 °F 68 °F 53 °F (1950)
Cooling Degree Days 13    
Growing Degree Days 28 (Base 50)    
Moisture  
Dew Point 75 °F    
Average Humidity 85    
Maximum Humidity 100    
Minimum Humidity 64    
Precipitation  
Precipitation 1.42 in - - ()
Sea Level Pressure  
Sea Level Pressure 30.02 in    
Wind  
Wind Speed 5 mph (East)    
Max Wind Speed 26 mph    
Max Gust Speed 41 mph    
Visibility 9 miles    
Events Thunderstorm    
Averages and records for this station are not official NWS values.
T = Trace of Precipitation, MM = Missing Value Source: NWS Daily Summary

Daily Weather History Graph

Daily Weather History Graph

Search for Another Location

Airport or City:

Trip Planner

Search our weather history database for the weather conditions in past years. The results will help you decide how hot, cold, wet, or windy it might be!

Date:

Astronomy

Aug. 03, 2013 Rise Set
Actual Time 6:25 AM CDT 8:24 PM CDT
Civil Twilight 5:56 AM CDT 8:53 PM CDT
Nautical Twilight 5:21 AM CDT 9:28 PM CDT
Astronomical Twilight 4:43 AM CDT 10:05 PM CDT
Moon 3:35 AM CDT (8/3) 6:06 PM CDT (8/3)
Length of Visible Light 14h 56m
Length of Day
13h 59m
Waning Crescent, 9% of the Moon is Illuminated
Aug 3
Waning Crescent
Aug 6
New
Aug 14
First Quarter
Aug 20
Full
Aug 28
Last Quarter

Hourly Weather History & Observations

Time (CDT) Temp. Heat Index Dew Point Humidity Pressure Visibility Wind Dir Wind Speed Gust Speed Precip Events Conditions
12:15 AM 81.0 °F 90.6 °F 81.1 °F 100% 29.90 in 10.0 mi SE 4.6 mph - N/A   Clear
12:35 AM 80.8 °F 90.0 °F 80.8 °F 100% 29.90 in 10.0 mi Calm Calm - N/A   Clear
12:55 AM 80.2 °F 88.0 °F 80.2 °F 100% 29.91 in 10.0 mi ESE 3.5 mph - N/A   Clear
1:15 AM 79.5 °F - 79.5 °F 100% 29.91 in 10.0 mi Calm Calm - N/A   Clear
1:35 AM 78.6 °F - 78.8 °F 100% 29.90 in 10.0 mi Calm Calm - N/A   Clear
1:55 AM 78.4 °F - 78.8 °F 100% 29.89 in 7.0 mi Calm Calm - N/A   Clear
2:15 AM 78.4 °F - 78.8 °F 100% 29.89 in 7.0 mi Calm Calm - N/A   Clear
2:35 AM 78.4 °F - - N/A% 29.90 in 7.0 mi Calm Calm - N/A   Scattered Clouds
2:55 AM 78.4 °F - - N/A% 29.94 in 7.0 mi North 12.7 mph 20.7 mph N/A Thunderstorm Mostly Cloudy
3:15 AM 77.5 °F - 77.7 °F 100% 29.95 in 3.0 mi NW 12.7 mph 26.5 mph 0.17 in Thunderstorm Thunderstorm
3:35 AM 73.9 °F - - N/A% 29.96 in 4.0 mi NNW 10.4 mph 29.9 mph 0.47 in Thunderstorm Thunderstorm
3:55 AM 71.6 °F - - N/A% 29.97 in 0.8 mi NNW 23.0 mph 33.4 mph 0.73 in Thunderstorm Thunderstorm
4:15 AM 70.9 °F - - N/A% 29.97 in 5.0 mi NNW 26.5 mph 41.4 mph 0.31 in Thunderstorm Thunderstorm
4:35 AM 70.9 °F - 71.1 °F 100% 29.96 in 7.0 mi WNW 6.9 mph 27.6 mph 0.57 in   Mostly Cloudy
4:55 AM 70.9 °F - 71.1 °F 100% 29.95 in 10.0 mi Calm Calm - 0.59 in   Mostly Cloudy
5:15 AM 70.9 °F - 71.2 °F 100% 29.97 in 10.0 mi Calm Calm - 0.01 in   Mostly Cloudy
5:35 AM 70.9 °F - - N/A% 29.99 in 10.0 mi NNE 3.5 mph - 0.02 in   Scattered Clouds
5:55 AM - - - N/A% 29.99 in 10.0 mi East 4.6 mph - 0.03 in   Mostly Cloudy
6:15 AM 71.8 °F - 72.0 °F 100% 30.00 in 10.0 mi ESE 9.2 mph - 0.02 in   Mostly Cloudy
6:35 AM 70.9 °F - - N/A% 29.99 in 10.0 mi SSE 8.1 mph - 0.02 in   Scattered Clouds
6:55 AM 70.9 °F - - N/A% 30.01 in 10.0 mi SE 5.8 mph - 0.02 in   Clear
7:15 AM 70.9 °F - - N/A% 30.02 in 10.0 mi ESE 3.5 mph - N/A   Clear
7:35 AM 70.9 °F - - N/A% 30.02 in 10.0 mi SE 3.5 mph - N/A   Clear
7:55 AM 70.9 °F - - N/A% 30.02 in 10.0 mi SSE 5.8 mph - N/A   Clear
8:15 AM 70.9 °F - - N/A% 30.03 in 10.0 mi Calm Calm - N/A   Clear
8:35 AM 71.1 °F - - N/A% 30.04 in 10.0 mi Calm Calm - N/A   Clear
8:55 AM 72.0 °F - 72.1 °F 100% 30.04 in 10.0 mi East 3.5 mph - N/A   Scattered Clouds
9:15 AM 72.1 °F - - N/A% 30.05 in 10.0 mi East 4.6 mph - N/A   Scattered Clouds
9:35 AM 72.9 °F - - N/A% 30.05 in 10.0 mi SE 3.5 mph - N/A   Scattered Clouds
9:55 AM - - - N/A% 30.07 in 10.0 mi Calm Calm - N/A   Scattered Clouds
10:15 AM 76.1 °F - 76.1 °F 100% 30.06 in 2.0 mi SE 8.1 mph - 0.04 in   Mostly Cloudy
10:35 AM 76.1 °F - - N/A% 30.07 in 10.0 mi SE 4.6 mph - 0.05 in   Scattered Clouds
10:55 AM 76.1 °F - 76.1 °F 100% 30.07 in 10.0 mi SSE 5.8 mph - 0.05 in   Scattered Clouds
11:15 AM 76.1 °F - 76.1 °F 100% 30.07 in 10.0 mi SSE 6.9 mph - N/A   Clear
11:35 AM 77.4 °F - 77.4 °F 100% 30.06 in 10.0 mi South 6.9 mph - N/A   Clear
11:55 AM 79.0 °F - 77.9 °F 96% 30.05 in 10.0 mi South 6.9 mph - N/A   Clear
12:15 PM 81.0 °F 88.1 °F 77.5 °F 89% 30.05 in 10.0 mi South 4.6 mph - N/A   Clear
12:35 PM 81.7 °F 88.7 °F 75.9 °F 83% 30.04 in 10.0 mi South 5.8 mph - N/A   Clear
12:55 PM 82.6 °F 88.3 °F 73.0 °F 73% 30.04 in 10.0 mi SSE 4.6 mph - N/A   Clear
1:15 PM 83.5 °F 88.5 °F 71.4 °F 67% 30.04 in 10.0 mi SSW 9.2 mph - N/A   Clear
1:35 PM 83.7 °F 88.3 °F 70.9 °F 65% 30.04 in 10.0 mi South 5.8 mph - N/A   Clear
1:55 PM 83.5 °F 88.2 °F 71.2 °F 66% 30.04 in 10.0 mi SSE 3.5 mph - N/A   Clear
2:15 PM 83.5 °F 88.5 °F 71.6 °F 67% 30.04 in 10.0 mi ESE 3.5 mph - N/A   Clear
2:35 PM 83.5 °F 89.1 °F 72.5 °F 69% 30.04 in 10.0 mi Calm Calm - N/A   Clear
2:55 PM 83.5 °F 89.4 °F 72.7 °F 70% 30.04 in 10.0 mi Calm Calm - N/A   Clear
3:15 PM 83.8 °F 90.1 °F 73.0 °F 70% 30.04 in 10.0 mi Calm Calm - N/A   Clear
3:35 PM 84.2 °F 89.9 °F 72.0 °F 67% 30.04 in 10.0 mi Calm Calm - N/A   Clear
3:55 PM 84.6 °F 90.0 °F 71.8 °F 65% 30.03 in 10.0 mi Calm Calm - N/A   Clear
4:15 PM 85.3 °F 91.8 °F 72.7 °F 66% 30.03 in 10.0 mi NNE 3.5 mph - N/A   Clear
4:35 PM 86.0 °F 92.6 °F 72.3 °F 64% 30.03 in 7.0 mi Calm Calm - N/A   Clear
4:55 PM 86.4 °F 93.8 °F 73.2 °F 65% 30.03 in 10.0 mi NNE 3.5 mph - N/A   Clear
5:15 PM 86.4 °F 93.4 °F 73.0 °F 64% 30.04 in 10.0 mi NNE 3.5 mph - N/A   Clear
5:35 PM 86.0 °F 93.0 °F 73.2 °F 65% 30.04 in 10.0 mi ENE 5.8 mph - N/A   Clear
5:55 PM 85.6 °F 93.4 °F 73.9 °F 68% 30.04 in 10.0 mi NE 5.8 mph - N/A   Clear
6:15 PM 85.5 °F 93.0 °F 73.8 °F 68% 30.03 in 10.0 mi ENE 6.9 mph - N/A   Clear
6:35 PM 84.6 °F 91.7 °F 73.9 °F 70% 30.03 in 10.0 mi ENE 6.9 mph - N/A   Clear
6:55 PM 84.0 °F 90.8 °F 73.6 °F 71% 30.04 in 10.0 mi East 3.5 mph - N/A   Clear
7:15 PM 83.5 °F 90.6 °F 74.5 °F 74% 30.04 in 10.0 mi East 6.9 mph - N/A   Scattered Clouds
7:35 PM 82.9 °F 90.5 °F 75.6 °F 78% 30.04 in 10.0 mi East 8.1 mph - N/A   Scattered Clouds
7:55 PM 81.3 °F 87.4 °F 75.0 °F 81% 30.05 in 10.0 mi ENE 6.9 mph - N/A   Scattered Clouds
8:15 PM 81.0 °F 86.9 °F 75.4 °F 83% 30.06 in 10.0 mi ENE 6.9 mph - N/A   Mostly Cloudy
8:35 PM 81.0 °F 86.9 °F 75.2 °F 83% 30.06 in 10.0 mi ENE 5.8 mph - N/A   Mostly Cloudy
8:55 PM 81.0 °F 87.1 °F 75.6 °F 84% 30.07 in 10.0 mi ENE 5.8 mph - N/A   Mostly Cloudy
9:15 PM 79.7 °F - 76.1 °F 89% 30.07 in 10.0 mi East 5.8 mph - N/A   Scattered Clouds
9:35 PM 78.4 °F - 77.0 °F 95% 30.07 in 10.0 mi East 6.9 mph - N/A   Clear
9:55 PM 78.4 °F - 78.3 °F 99% 30.08 in 10.0 mi East 5.8 mph - N/A   Clear
10:15 PM 78.4 °F - 77.5 °F 97% 30.09 in 10.0 mi East 4.6 mph - N/A   Clear
10:35 PM 78.4 °F - 76.1 °F 92% 30.09 in 10.0 mi East 4.6 mph - N/A   Clear
10:55 PM 78.4 °F - 76.3 °F 93% 30.09 in 10.0 mi East 3.5 mph - N/A   Clear
11:15 PM 78.4 °F - 75.7 °F 91% 30.09 in 10.0 mi East 4.6 mph - N/A   Clear
11:35 PM 78.4 °F - 76.1 °F 92% 30.09 in 10.0 mi ESE 4.6 mph - N/A   Clear
11:55 PM 78.4 °F - 76.3 °F 93% 30.09 in 10.0 mi East 4.6 mph - N/A   Clear